Location: ?nandapuram
(16.5396°N, 81.1430°E)
Time: 11:26:46
(UTC+00:00)

DNEPR-1 R/B - Pass Details

Date: 14 April 2026
Orbit: 581 x 1332 km, 64.6° (Epoch: 20 May)

Event Time Altitude Azimuth Distance (km) Brightness Sun altitude
Rises 13:41:51 0° 195° (SSW) 3,135 7.2 -12.8°
Reaches altitude 10° 13:44:23 10° 191° (S) 2,120 6.3 -13.4°
Maximum altitude 13:48:58 55° 113° (ESE) 742 3.6 -14.5°
Drops below altitude 10° 13:53:06 10° 35° (NE) 1,909 5.9 -15.4°
Sets 13:55:16 0° 31° (NNE) 2,792 6.8 -15.9°
